Date String (YYYY-MM-DD hh:mm:ss) UTC,Instrument flags,Ambient pressure (hPa),Sample flow (lpm),Bypass flow (lpm),Sample temperature (°C),Ambient temperature (°C),ASC tube jacket temperature (°C),LED temperature (°C),Box temperature (°C),Sample RH (%),Span deviation,Mass concentration (μg/m³),Mass concentration (μg/m³),Mass concentration (μg/m³)
DateTimeUTC,F1_M11,P_M11,Q1_M11,Q2_M11,T1_M11,T2_M11,T3_M11,T4_M11,T5_M11,U1_M11,ZSPAN_M11,X0_M11,X2_M11,X1_M11
2022-03-12 08:00:00,,0825.8,5.00,0.00,22.3,21.8,00.0,31.5,24.0,08.2,0000.0,0010.67,0005.46,0004.84
2022-03-12 08:01:00,,0825.7,4.99,0.00,22.5,22.6,00.0,31.5,24.3,08.2,0000.0,0010.33,0005.44,0004.85
2022-03-12 08:02:00,,0825.8,5.00,0.00,22.6,23.1,00.0,31.5,24.5,08.1,0000.0,0010.21,0005.48,0004.86
2022-03-12 08:03:00,,0826.0,5.02,0.00,22.7,22.8,00.0,31.5,24.5,08.1,0000.0,0010.35,0005.54,0004.86
2022-03-12 08:04:00,,0826.0,5.00,0.00,22.6,22.5,00.0,31.5,24.5,08.1,0000.0,0010.61,0005.54,0004.85
2022-03-12 08:05:00,,0826.0,5.00,0.00,22.6,22.3,00.0,31.5,24.4,08.1,0000.0,0011.75,0005.52,0004.85
2022-03-12 08:06:00,,0826.0,5.00,0.00,22.6,22.1,00.0,31.5,24.3,08.2,0000.0,0011.93,0005.50,0004.85
2022-03-12 08:07:00,,0825.9,5.00,0.00,22.6,21.8,00.0,31.5,24.3,08.2,0000.0,0011.68,0005.49,0004.86
2022-03-12 08:08:00,,0825.9,4.99,0.00,22.5,21.7,00.0,31.5,24.2,08.2,0000.0,0011.70,0005.49,0004.85
2022-03-12 08:09:00,,0825.9,5.01,0.00,22.5,21.6,00.0,31.5,24.1,08.2,0000.0,0011.52,0005.45,0004.83
2022-03-12 08:10:00,,0826.0,4.98,0.00,22.4,21.6,00.0,31.5,24.0,08.3,0000.0,0011.25,0005.43,0004.82
2022-03-12 08:11:00,,0826.1,5.01,0.00,22.4,21.5,00.0,31.5,24.0,08.3,0000.0,0011.25,0005.43,0004.83
2022-03-12 08:12:00,,0826.0,4.99,0.00,22.3,21.4,00.0,31.5,23.9,08.3,0000.0,0011.66,0005.42,0004.83
2022-03-12 08:13:00,,0826.1,5.02,0.00,22.3,21.4,00.0,31.4,23.9,08.3,0000.0,0011.54,0005.41,0004.86
2022-03-12 08:14:00,,0826.1,5.00,0.00,22.3,21.7,00.0,31.4,24.0,08.3,0000.0,0011.45,0005.37,0004.87
2022-03-12 08:15:00,,0826.2,5.00,0.00,22.4,22.4,00.0,31.5,24.2,08.3,0000.0,0011.41,0005.37,0004.87
2022-03-12 08:16:00,,0826.2,5.00,0.00,22.6,23.1,00.0,31.5,24.5,08.2,0000.0,0010.24,0005.39,0004.87
2022-03-12 08:17:00,,0826.1,5.00,0.00,22.7,23.1,00.0,31.5,24.6,08.2,0000.0,0009.79,0005.41,0004.87
2022-03-12 08:18:00,,0826.1,5.01,0.00,22.7,22.8,00.0,31.5,24.6,08.2,0000.0,0009.73,0005.43,0004.87
2022-03-12 08:19:00,,0826.1,5.00,0.00,22.7,22.6,00.0,31.5,24.5,08.2,0000.0,0009.39,0005.45,0004.88
2022-03-12 08:20:00,,0826.1,4.99,0.00,22.7,22.4,00.0,31.5,24.4,08.2,0000.0,0010.26,0005.47,0004.88
2022-03-12 08:21:00,,0826.2,5.00,0.00,22.7,22.3,00.0,31.5,24.4,08.2,0000.0,0010.66,0005.48,0004.88
2022-03-12 08:22:00,,0826.1,4.99,0.00,22.6,22.1,00.0,31.5,24.3,08.2,0000.0,0010.73,0005.50,0004.87
2022-03-12 08:23:00,,0826.1,5.01,0.00,22.6,22.0,00.0,31.5,24.3,08.2,0000.0,0010.22,0005.49,0004.87
2022-03-12 08:24:00,,0826.1,4.99,0.00,22.6,21.9,00.0,31.5,24.3,08.2,0000.0,0010.21,0005.47,0004.85
2022-03-12 08:25:00,,0826.1,5.00,0.00,22.6,21.8,00.0,31.5,24.2,08.2,0000.0,0010.14,0005.46,0004.84
2022-03-12 08:26:00,,0826.1,5.00,0.00,22.5,21.7,00.0,31.5,24.2,08.2,0000.0,0010.86,0005.45,0004.83
2022-03-12 08:27:00,,0826.1,4.99,0.00,22.5,21.6,00.0,31.5,24.1,08.2,0000.0,0010.95,0005.43,0004.83
2022-03-12 08:28:00,,0826.2,4.99,0.00,22.4,21.6,00.0,31.5,24.1,08.2,0000.0,0011.08,0005.47,0004.84
2022-03-12 08:29:00,,0826.2,5.01,0.00,22.4,21.5,00.0,31.5,24.0,08.2,0000.0,0010.99,0005.44,0004.84
2022-03-12 08:30:00,,0826.1,5.00,0.00,22.4,21.5,00.0,31.5,24.0,08.2,0000.0,0011.72,0005.40,0004.84
2022-03-12 08:31:00,,0826.1,4.99,0.00,22.4,22.0,00.0,31.5,24.2,08.2,0000.0,0010.80,0005.38,0004.84
2022-03-12 08:32:00,,0826.2,5.01,0.00,22.6,22.8,00.0,31.5,24.4,08.2,0000.0,0010.45,0005.36,0004.84
2022-03-12 08:33:00,,0826.2,4.99,0.00,22.7,23.2,00.0,31.6,24.6,08.1,0000.0,0010.47,0005.34,0004.85
2022-03-12 08:34:00,,0826.2,5.01,0.00,22.8,23.0,00.0,31.6,24.7,08.1,0000.0,0010.48,0005.36,0004.86
2022-03-12 08:35:00,,0826.2,5.00,0.00,22.7,22.7,00.0,31.6,24.6,08.1,0000.0,0010.74,0005.37,0004.86
2022-03-12 08:36:00,,0826.1,5.00,0.00,22.7,22.5,00.0,31.6,24.5,08.1,0000.0,0010.77,0005.38,0004.86
2022-03-12 08:37:00,,0826.0,5.00,0.00,22.7,22.3,00.0,31.6,24.4,08.1,0000.0,0010.06,0005.36,0004.87
2022-03-12 08:38:00,,0825.9,5.00,0.00,22.7,22.2,00.0,31.6,24.3,08.1,0000.0,0009.75,0005.35,0004.88
2022-03-12 08:39:00,,0826.1,4.99,0.00,22.6,22.0,00.0,31.6,24.2,08.1,0000.0,0009.67,0005.33,0004.88
2022-03-12 08:40:00,,0826.1,4.99,0.00,22.6,21.9,00.0,31.6,24.2,08.1,0000.0,0009.79,0005.36,0004.89
2022-03-12 08:41:00,,0826.1,5.01,0.00,22.5,21.8,00.0,31.6,24.1,08.2,0000.0,0009.33,0005.40,0004.89
2022-03-12 08:42:00,,0826.1,5.01,0.00,22.4,21.7,00.0,31.5,24.0,08.2,0000.0,0009.04,0005.41,0004.88
2022-03-12 08:43:00,,0826.1,4.99,0.00,22.4,21.6,00.0,31.5,23.9,08.3,0000.0,0009.40,0005.46,0004.89
2022-03-12 08:44:00,,0826.0,5.00,0.00,22.3,21.5,00.0,31.5,23.9,08.3,0000.0,0009.96,0005.49,0004.91
2022-03-12 08:45:00,,0826.0,5.01,0.00,22.3,21.7,00.0,31.5,24.0,08.3,0000.0,0010.02,0005.53,0004.93
2022-03-12 08:46:00,,0826.1,4.99,0.00,22.5,22.5,00.0,31.5,24.2,08.3,0000.0,0009.89,0005.54,0004.94
2022-03-12 08:47:00,,0826.1,5.02,0.00,22.6,23.1,00.0,31.6,24.5,08.2,0000.0,0009.82,0005.55,0004.96
2022-03-12 08:48:00,,0826.2,4.99,0.00,22.7,23.1,00.0,31.6,24.6,08.2,0000.0,0009.89,0005.57,0004.97
2022-03-12 08:49:00,,0826.2,5.00,0.00,22.7,22.8,00.0,31.6,24.6,08.2,0000.0,0010.33,0005.63,0004.99
2022-03-12 08:50:00,,0826.1,5.00,0.00,22.7,22.6,00.0,31.6,24.5,08.2,0000.0,0010.40,0005.67,0005.00
2022-03-12 08:51:00,,0826.1,5.00,0.00,22.7,22.3,00.0,31.6,24.4,08.2,0000.0,0010.42,0005.69,0005.02
2022-03-12 08:52:00,,0826.0,5.00,0.00,22.6,22.2,00.0,31.6,24.3,08.2,0000.0,0010.40,0005.69,0005.04
2022-03-12 08:53:00,,0826.1,4.99,0.00,22.6,22.0,00.0,31.6,24.3,08.2,0000.0,0010.42,0005.71,0005.06
2022-03-12 08:54:00,,0826.1,5.01,0.00,22.6,21.9,00.0,31.6,24.2,08.2,0000.0,0010.26,0005.70,0005.08
2022-03-12 08:55:00,,0826.0,5.00,0.00,22.5,21.8,00.0,31.5,24.1,08.2,0000.0,0009.48,0005.71,0005.08
2022-03-12 08:56:00,,0826.0,5.00,0.00,22.5,21.7,00.0,31.5,24.1,08.3,0000.0,0009.73,0005.73,0005.09
2022-03-12 08:57:00,,0825.9,5.00,0.00,22.4,21.6,00.0,31.5,24.0,08.3,0000.0,0009.92,0005.75,0005.10
2022-03-12 08:58:00,,0826.0,4.99,0.00,22.4,21.5,00.0,31.5,23.9,08.3,0000.0,0009.93,0005.75,0005.09
2022-03-12 08:59:00,,0826.1,5.00,0.00,22.3,21.5,00.0,31.5,23.8,08.2,0000.0,0009.82,0005.70,0005.04
